This is the latest recevied weather packets stored in our database for station/object K0WXC-1. If no packets are shown the sender has not sent any weather packets the latest 1 day(s).
| Time | Temp. | Humidity | Pressure | Rain* | Wind** | Luminosity | Snow |
|---|---|---|---|---|---|---|---|
| 1778104408 | 14.44° C | 32% | 1003.5 hPa | 0 mm | 0.89 m/s, 325° | - | - |
| 1778104348 | 14.44° C | 32% | 1003.5 hPa | 0 mm | 0.89 m/s, 325° | - | - |
| 1778104288 | 14.44° C | 32% | 1003.5 hPa | 0 mm | 0.89 m/s, 325° | - | - |
| 1778103988 | 15° C | 32% | 1003.7 hPa | 0 mm | 2.24 m/s, 312° | - | - |
| 1778103868 | 13.89° C | 32% | 1003.6 hPa | 0 mm | 1.34 m/s, 275° | - | - |
| 1778103628 | 14.44° C | 32% | 1003.8 hPa | 0 mm | 4.92 m/s, 282° | - | - |
| 1778103388 | 14.44° C | 32% | 1003.8 hPa | 0 mm | 4.92 m/s, 282° | - | - |
| 1778103268 | 14.44° C | 35% | 1003.7 hPa | 0 mm | 2.24 m/s, 311° | - | - |
| 1778103148 | 14.44° C | 35% | 1003.7 hPa | 0 mm | 2.24 m/s, 311° | - | - |
| 1778103088 | 14.44° C | 35% | 1003.7 hPa | 0 mm | 2.24 m/s, 311° | - | - |
| 1778103028 | 14.44° C | 34% | 1003.9 hPa | 0 mm | 0.89 m/s, 202° | - | - |
| 1778102848 | 14.44° C | 34% | 1003.9 hPa | 0 mm | 0.89 m/s, 202° | - | - |
| 1778102788 | 14.44° C | 34% | 1003.9 hPa | 0 mm | 0.89 m/s, 202° | - | - |
| 1778102728 | 14.44° C | 34% | 1003.9 hPa | 0 mm | 2.24 m/s, 267° | - | - |
| 1778102608 | 14.44° C | 34% | 1003.9 hPa | 0 mm | 2.24 m/s, 267° | - | - |
| 1778102548 | 14.44° C | 34% | 1003.9 hPa | 0 mm | 2.24 m/s, 267° | - | - |
| 1778102488 | 14.44° C | 34% | 1003.9 hPa | 0 mm | 2.24 m/s, 267° | - | - |
| 1778102368 | 14.44° C | 34% | 1004 hPa | 0 mm | 2.24 m/s, 238° | - | - |
| 1778102308 | 14.44° C | 34% | 1004 hPa | 0 mm | 2.24 m/s, 238° | - | - |
| 1778102248 | 14.44° C | 34% | 1004 hPa | 0 mm | 2.24 m/s, 238° | - | - |
| 1778102188 | 14.44° C | 34% | 1004 hPa | 0 mm | 2.24 m/s, 238° | - | - |
| 1778101888 | 15° C | 33% | 1003.8 hPa | 0 mm | 3.58 m/s, 301° | - | - |
| 1778101708 | 14.44° C | 33% | 1004.1 hPa | 0 mm | 2.68 m/s, 312° | - | - |
| 1778101528 | 14.44° C | 33% | 1004.1 hPa | 0 mm | 1.79 m/s, 276° | - | - |
| 1778101468 | 14.44° C | 33% | 1004.1 hPa | 0 mm | 1.79 m/s, 276° | - | - |
* Rain latest hour (hover to see other rain measurements)
** Current wind speed in m/s (hover to see current wind gust speed)